User: anonymous   Login
Location: Unspecified
(0.0000°N, 0.0000°E)
Time: 02:00:01
(UTC+00:00)
Language:

STARLINK-35933 - Orbit

View from above orbital plane
View from above orbital plane
View from above satellite
View from above satellite

Ground track
Ground track

The orbit is defined by the following mean orbital elements,

1 66529U          26145.21815521 +.00000000 +00000-0 +55884-3 0 00007
2 66529  43.0027 206.0774 0001559 267.0874  92.9799 15.27591637    07
Epoch (UTC): 25 May 2026 05:14:08
Eccentricity: 0.0001559
inclination: 43.0027°
perigee height: 482 km
apogee height: 484 km
right ascension of ascending node: 206.0774°
argument of perigee: 267.0874°
revolutions per day: 15.27591637
mean anomaly at epoch: 92.9799°

The dashed part of the orbit path shows where the satellite is in the earth's shadow,  

DLR